﻿_id,日時,平均風速(m/s),平均風向,最大瞬間風速(m/s),最大風速時風向,気温(℃),湿度(%),10分間移動積算雨量(mm),1時間移動積算雨量(mm),日雨量(mm),累計雨量(mm)
1,2024-01-08T00:00:00,1.7,北,4.9,西,0.4,85.6,0,0,0.5,0.5
2,2024-01-08T00:01:00,1.5,北,4.9,西,0.4,85.6,0,0,0,0.5
3,2024-01-08T00:02:00,1.4,北北東,4.5,西北西,0.5,85.2,0,0,0,0.5
4,2024-01-08T00:03:00,1.4,北北東,4.5,西北西,0.5,84.4,0,0,0,0.5
5,2024-01-08T00:04:00,1.2,北北東,3.1,北,0.5,83.9,0,0,0,0.5
6,2024-01-08T00:05:00,1.2,北北東,3.1,北,0.5,83.3,0,0,0,0.5
7,2024-01-08T00:06:00,1.3,北北東,3.1,北,0.5,83,0,0,0,0.5
8,2024-01-08T00:07:00,1.4,北,3.1,北,0.4,83.4,0,0,0,0.5
9,2024-01-08T00:08:00,1.4,北,3.1,北,0.5,83.1,0,0,0,0.5
10,2024-01-08T00:09:00,1.4,北北西,3.1,北,0.7,81.7,0,0,0,0.5
11,2024-01-08T00:10:00,1.5,北北西,3.1,北,0.9,80.4,0,0,0,0.5
12,2024-01-08T00:11:00,1.5,北北西,3.1,北,0.9,80,0,0,0,0.5
13,2024-01-08T00:12:00,1.5,北北西,3.1,北,0.9,79.3,0,0,0,0.5
14,2024-01-08T00:13:00,1.4,北西,2.9,西北西,1.1,77.1,0,0,0,0.5
15,2024-01-08T00:14:00,1.4,北西,2.9,西北西,1.1,76.4,0,0,0,0.5
16,2024-01-08T00:15:00,1.4,北西,2.9,西北西,1,76.2,0,0,0,0.5
17,2024-01-08T00:16:00,1.3,北西,2.9,西北西,0.9,78.1,0,0,0,0.5
18,2024-01-08T00:17:00,1.2,北西,2.7,北北西,1,76.9,0,0,0,0.5
19,2024-01-08T00:18:00,1.2,北西,2.7,北北西,1,76.5,0,0,0,0.5
20,2024-01-08T00:19:00,1.3,北西,3,北,1.2,75.8,0,0,0,0.5
21,2024-01-08T00:20:00,1.3,北西,3.7,北西,1.3,74.1,0,0,0,0.5
22,2024-01-08T00:21:00,1.4,北北西,3.8,北東,1.3,72.9,0,0,0,0.5
23,2024-01-08T00:22:00,1.6,北北西,5.3,北,1.3,72.3,0,0,0,0.5
24,2024-01-08T00:23:00,1.7,北北西,5.3,北,1.3,72.7,0,0,0,0.5
25,2024-01-08T00:24:00,1.8,北北西,5.3,北,1.3,71.9,0,0,0,0.5
26,2024-01-08T00:25:00,1.9,北北西,5.3,北,1.4,72.1,0,0,0,0.5
27,2024-01-08T00:26:00,2,北北西,5.3,北,1.4,71.1,0,0,0,0.5
28,2024-01-08T00:27:00,2.1,北北西,5.3,北,1.4,70.8,0,0,0,0.5
29,2024-01-08T00:28:00,2.2,北北西,5.3,北,1.5,70.3,0,0,0,0.5
30,2024-01-08T00:29:00,2.2,北北西,5.3,北,1.4,70.9,0,0,0,0.5
31,2024-01-08T00:30:00,2.2,北西,5.3,北,1.3,71.9,0,0,0,0.5
32,2024-01-08T00:31:00,2.3,北西,5.3,北,1.3,72.1,0,0,0,0.5
33,2024-01-08T00:32:00,2.3,北西,5,北西,1.3,71.6,0,0,0,0.5
34,2024-01-08T00:33:00,2.3,北西,5,北西,1.4,70.9,0,0,0,0.5
35,2024-01-08T00:34:00,2.5,北西,5,北西,1.3,72.4,0,0,0,0.5
36,2024-01-08T00:35:00,2.7,北西,7.1,北北西,1.3,72.8,0,0,0,0.5
37,2024-01-08T00:36:00,3.1,北北西,8.9,北西,1.4,70.3,0,0,0,0.5
38,2024-01-08T00:37:00,3.4,北西,8.9,北西,1.4,71.2,0,0,0,0.5
39,2024-01-08T00:38:00,3.8,北西,8.9,北西,1.3,71.7,0,0,0,0.5
40,2024-01-08T00:39:00,4,北北西,8.9,北西,1.3,72.2,0,0,0,0.5
41,2024-01-08T00:40:00,4.3,北北西,8.9,北西,1.3,71.7,0,0,0,0.5
42,2024-01-08T00:41:00,4.3,北北西,8.9,北西,1.3,71.4,0,0,0,0.5
43,2024-01-08T00:42:00,4.4,北北西,8.9,北西,1.3,71.6,0,0,0,0.5
44,2024-01-08T00:43:00,4.7,北北西,8.9,北西,1.1,73.8,0,0,0,0.5
45,2024-01-08T00:44:00,5.2,北北西,11.8,北北西,1,75.5,0,0,0,0.5
46,2024-01-08T00:45:00,5.4,北北西,11.8,北北西,1,75.8,0,0,0,0.5
47,2024-01-08T00:46:00,5.3,北北西,11.8,北北西,0.9,77.1,0,0,0,0.5
48,2024-01-08T00:47:00,5.3,北北西,11.8,北北西,0.7,78.6,0,0,0,0.5
49,2024-01-08T00:48:00,5.1,北西,11.8,北北西,0.7,78.9,0,0,0,0.5
50,2024-01-08T00:49:00,5.1,北西,11.8,北北西,0.7,79.3,0,0,0,0.5
51,2024-01-08T00:50:00,5,北西,11.8,北北西,0.6,80.4,0,0,0,0.5
52,2024-01-08T00:51:00,5,北西,11.8,北北西,0.6,80.6,0,0,0,0.5
53,2024-01-08T00:52:00,4.9,北西,11.8,北北西,0.6,81,0,0,0,0.5
54,2024-01-08T00:53:00,4.8,北西,11.8,北北西,0.6,81.4,0,0,0,0.5
55,2024-01-08T00:54:00,4.4,北西,9.9,北北西,0.5,81.9,0,0,0,0.5
56,2024-01-08T00:55:00,4.2,北西,7.3,北西,0.6,82.3,0,0,0,0.5
57,2024-01-08T00:56:00,4.3,西北西,7.3,北西,0.5,82.7,0,0,0,0.5
58,2024-01-08T00:57:00,4.3,西北西,7.3,北西,0.4,83.6,0,0,0,0.5
59,2024-01-08T00:58:00,4.3,西北西,7.2,西北西,0.3,84.8,0,0,0,0.5
60,2024-01-08T00:59:00,4.3,西北西,7.2,西北西,0.3,85.4,0,0,0,0.5
61,2024-01-08T01:00:00,4.4,西北西,7.2,西北西,0.2,86.6,0,0,0,0.5
62,2024-01-08T01:01:00,4.6,西北西,7.2,西北西,0.1,87.8,0,0,0,0.5
63,2024-01-08T01:02:00,4.7,西北西,7.2,西北西,0,88.5,0,0,0,0.5
64,2024-01-08T01:03:00,4.8,西北西,7.2,西北西,0,89.4,0,0,0,0.5
65,2024-01-08T01:04:00,4.8,西北西,7.2,西北西,0,90.2,0,0,0,0.5
66,2024-01-08T01:05:00,4.8,西北西,7.2,西北西,0,90.8,0,0,0,0.5
67,2024-01-08T01:06:00,4.7,西北西,6.8,西北西,0,91.2,0,0,0,0.5
68,2024-01-08T01:07:00,4.6,西北西,6.8,西北西,0,91.4,0,0,0,0.5
69,2024-01-08T01:08:00,4.6,西北西,6.8,西北西,0,91.6,0,0,0,0.5
70,2024-01-08T01:09:00,4.4,西北西,6.8,西北西,0,91.9,0,0,0,0.5
71,2024-01-08T01:10:00,4.5,西北西,6.8,西北西,0,92,0,0,0,0.5
72,2024-01-08T01:11:00,4.4,西北西,6.5,西北西,0,92.2,0,0,0,0.5
73,2024-01-08T01:12:00,4.2,西北西,6.5,西北西,0,92.4,0,0,0,0.5
74,2024-01-08T01:13:00,4.1,西北西,5.8,北西,0,92.6,0,0,0,0.5
75,2024-01-08T01:14:00,3.9,西北西,5.8,北西,0,92.8,0,0,0,0.5
76,2024-01-08T01:15:00,3.9,西北西,5.8,北西,0,93,0,0,0,0.5
77,2024-01-08T01:16:00,3.9,西北西,6.2,北西,0,93,0,0,0,0.5
78,2024-01-08T01:17:00,3.8,西北西,6.2,北西,0,92.8,0,0,0,0.5
79,2024-01-08T01:18:00,3.9,北西,6.2,北西,0,92.5,0,0,0,0.5
80,2024-01-08T01:19:00,4.1,北西,6.2,北西,0,92.2,0,0,0,0.5
81,2024-01-08T01:20:00,,"",,"",,,,,,
82,2024-01-08T01:21:00,4.2,北西,6.5,西北西,0,91.7,0,0,0,0.5
83,2024-01-08T01:22:00,4.3,北西,7.9,西北西,0.1,91.1,0,0,0,0.5
84,2024-01-08T01:23:00,4.6,北西,8.6,北西,0.2,90,0,0,0,0.5
85,2024-01-08T01:24:00,4.8,北西,8.6,北西,0.3,88.7,0,0,0,0.5
86,2024-01-08T01:25:00,5,北西,8.6,北西,0.3,87.6,0,0,0,0.5
87,2024-01-08T01:26:00,5,北西,8.6,北西,0.3,87,0,0,0,0.5
88,2024-01-08T01:27:00,5,北西,8.6,北西,0.3,86.8,0,0,0,0.5
89,2024-01-08T01:28:00,5.1,北西,8.6,北西,0.2,86.7,0,0,0,0.5
90,2024-01-08T01:29:00,5.1,北西,8.6,北西,0.3,86.5,0,0,0,0.5
91,2024-01-08T01:30:00,5.2,北西,8.6,北西,0.2,86.7,0,0,0,0.5
92,2024-01-08T01:31:00,5.2,北西,8.6,北西,0.2,86.7,0,0,0,0.5
93,2024-01-08T01:32:00,5.2,北西,8.6,北西,0.2,86.9,0,0,0,0.5
94,2024-01-08T01:33:00,5.1,北西,8.4,北北西,0.2,86.9,0,0,0,0.5
95,2024-01-08T01:34:00,5,北西,8.4,北北西,0.2,86.9,0,0,0,0.5
96,2024-01-08T01:35:00,5.1,北西,8.4,北北西,0.3,87.2,0,0,0,0.5
97,2024-01-08T01:36:00,5.1,北西,8.4,北北西,0.3,87.4,0,0,0,0.5
98,2024-01-08T01:37:00,5.3,北西,8.6,西北西,0.1,87.9,0,0,0,0.5
99,2024-01-08T01:38:00,5.4,西北西,9.1,西,0.1,88.6,0,0,0,0.5
100,2024-01-08T01:39:00,5.4,西北西,9.1,西,0,89.4,0,0,0,0.5
101,2024-01-08T01:40:00,5.5,西北西,9.1,西,0,90.2,0,0,0,0.5
102,2024-01-08T01:41:00,5.5,西北西,9.1,西,-0.1,90.9,0,0,0,0.5
103,2024-01-08T01:42:00,5.4,西北西,9.1,西,-0.1,91.7,0,0,0,0.5
104,2024-01-08T01:43:00,5.3,西北西,9.1,西,-0.2,92.5,0,0,0,0.5
105,2024-01-08T01:44:00,5.4,西北西,9.1,西,-0.2,93,0,0,0,0.5
106,2024-01-08T01:45:00,5.3,西北西,9.1,西,-0.2,93.6,0,0,0,0.5
107,2024-01-08T01:46:00,5.4,西北西,9.1,西,-0.3,93.7,0,0,0,0.5
108,2024-01-08T01:47:00,5.1,西北西,9.1,西,-0.2,94,0,0,0,0.5
109,2024-01-08T01:48:00,4.9,西北西,8,北西,-0.2,94.3,0,0,0,0.5
110,2024-01-08T01:49:00,4.7,西北西,8,北西,-0.2,94.4,0,0,0,0.5
111,2024-01-08T01:50:00,4.5,西北西,8,北西,-0.2,94.5,0,0,0,0.5
112,2024-01-08T01:51:00,4.3,西北西,8,北西,-0.3,94.5,0,0,0,0.5
113,2024-01-08T01:52:00,4.2,西北西,8,北西,-0.3,94.6,0,0,0,0.5
114,2024-01-08T01:53:00,4.2,北西,8,北西,-0.2,94.7,0,0,0,0.5
115,2024-01-08T01:54:00,4.1,西北西,7.8,北西,-0.2,94.7,0,0,0,0.5
116,2024-01-08T01:55:00,3.9,西北西,7.8,北西,-0.1,94.6,0,0,0,0.5
117,2024-01-08T01:56:00,3.6,北西,6.1,西北西,0,94.1,0,0,0,0.5
118,2024-01-08T01:57:00,3.6,北西,6.1,西北西,0,93.5,0,0,0,0.5
119,2024-01-08T01:58:00,3.7,北西,6.8,北西,0.1,92.8,0,0,0,0.5
120,2024-01-08T01:59:00,3.8,北西,7.2,北北西,0.2,91.4,0,0,0,0.5
121,2024-01-08T02:00:00,3.9,北西,7.2,北北西,0.3,90.2,0,0,0,0.5
122,2024-01-08T02:01:00,4,北西,7.2,北北西,0.3,89.5,0,0,0,0.5
123,2024-01-08T02:02:00,4,北西,7.2,北北西,0.3,88.6,0,0,0,0.5
124,2024-01-08T02:03:00,3.9,北西,7.2,北北西,0.4,87.6,0,0,0,0.5
125,2024-01-08T02:04:00,3.7,北西,7.2,北北西,0.4,87.1,0,0,0,0.5
126,2024-01-08T02:05:00,3.7,北西,7.2,北北西,0.4,86.4,0,0,0,0.5
127,2024-01-08T02:06:00,3.8,北西,7.2,北北西,0.4,86.2,0,0,0,0.5
128,2024-01-08T02:07:00,4,北西,7.2,北北西,0.5,85,0,0,0,0.5
129,2024-01-08T02:08:00,3.9,北西,7.2,北北西,0.5,84.7,0,0,0,0.5
130,2024-01-08T02:09:00,3.8,北西,7.2,北西,0.4,84.9,0,0,0,0.5
131,2024-01-08T02:10:00,3.6,北西,7.2,北西,0.5,84.6,0,0,0,0.5
132,2024-01-08T02:11:00,3.4,北北西,7.2,北西,0.4,84.5,0,0,0,0.5
133,2024-01-08T02:12:00,3.3,北北西,7.2,北西,0.4,85.1,0,0,0,0.5
134,2024-01-08T02:13:00,3.1,北北西,7.2,北西,0.5,84.9,0,0,0,0.5
135,2024-01-08T02:14:00,3.1,北北西,7.2,北西,0.5,84.2,0,0,0,0.5
136,2024-01-08T02:15:00,2.9,北北西,7.2,北西,0.4,84.4,0,0,0,0.5
137,2024-01-08T02:16:00,2.6,北北西,7.2,北西,0.4,85.1,0,0,0,0.5
138,2024-01-08T02:17:00,2.3,北北西,5,北北西,0.4,85.3,0,0,0,0.5
139,2024-01-08T02:18:00,2.1,北北西,4.9,北北西,0.4,85.7,0,0,0,0.5
140,2024-01-08T02:19:00,1.8,北北西,3.4,北北西,0.3,86.4,0,0,0,0.5
141,2024-01-08T02:20:00,1.7,北北西,3.4,北北西,0.3,86.9,0,0,0,0.5
142,2024-01-08T02:21:00,1.6,北北西,3.4,北北西,0.3,87.1,0,0,0,0.5
143,2024-01-08T02:22:00,1.5,北北西,3.4,北北西,0.3,87.3,0.5,0.5,0.5,1
144,2024-01-08T02:23:00,1.4,北北西,3.4,北北西,0.3,87.6,0.5,0.5,0.5,1
145,2024-01-08T02:24:00,1.4,北,3.4,北北西,0.3,88.1,0.5,0.5,0.5,1
146,2024-01-08T02:25:00,1.4,北,3.4,北北西,0.2,88.1,0.5,0.5,0.5,1
147,2024-01-08T02:26:00,1.4,北,2.9,北北西,0.2,88.1,0.5,0.5,0.5,1
148,2024-01-08T02:27:00,1.4,北,2.9,北北西,0.2,88.2,0.5,0.5,0.5,1
149,2024-01-08T02:28:00,1.4,北,2.7,北,0.2,88.5,0.5,0.5,0.5,1
150,2024-01-08T02:29:00,1.4,北,2.7,北,0.1,88.7,0.5,0.5,0.5,1
151,2024-01-08T02:30:00,1.4,北,2.7,北,0.2,88.7,0.5,0.5,0.5,1
152,2024-01-08T02:31:00,1.4,北,2.5,北北西,0.3,88.4,0.5,0.5,0.5,1
153,2024-01-08T02:32:00,1.4,北,2.5,北北西,0.3,88.1,0,0.5,0.5,1
154,2024-01-08T02:33:00,1.4,北,2.5,北北西,0.2,88.2,0,0.5,0.5,1
155,2024-01-08T02:34:00,1.5,北北東,2.5,北北西,0.2,88.3,0,0.5,0.5,1
156,2024-01-08T02:35:00,1.5,北北東,2.4,北,0.2,88.5,0,0.5,0.5,1
157,2024-01-08T02:36:00,1.5,北北東,2.4,北,0.2,88.6,0,0.5,0.5,1
158,2024-01-08T02:37:00,1.5,北北東,2.4,北,0.2,88.8,0,0.5,0.5,1
159,2024-01-08T02:38:00,1.5,北東,2.4,北,0.2,89,0,0.5,0.5,1
160,2024-01-08T02:39:00,1.4,北東,2.3,北東,0.2,89.2,0,0.5,0.5,1
161,2024-01-08T02:40:00,1.3,北東,2.3,北東,0.1,89.4,0,0.5,0.5,1
162,2024-01-08T02:41:00,1.2,東北東,2.3,北東,0,89.3,0,0.5,0.5,1
163,2024-01-08T02:42:00,1,東北東,2.3,北東,0,89.5,0,0.5,0.5,1
164,2024-01-08T02:43:00,0.9,東北東,2.3,北東,0,89.8,0,0.5,0.5,1
165,2024-01-08T02:44:00,0.8,北東,2.3,北東,0,89.9,0,0.5,0.5,1
166,2024-01-08T02:45:00,0.7,北東,2.3,北東,0,90,0,0.5,0.5,1
167,2024-01-08T02:46:00,0.5,北北東,1.7,東北東,-0.1,90.1,0,0.5,0.5,1
168,2024-01-08T02:47:00,0.5,北,1.7,東北東,-0.2,90.3,0,0.5,0.5,1
169,2024-01-08T02:48:00,0.4,西,1.3,北東,-0.2,90.4,0,0.5,0.5,1
170,2024-01-08T02:49:00,0.4,南西,0.9,南南東,-0.2,91,0,0.5,0.5,1
171,2024-01-08T02:50:00,0.4,南西,1.4,南,-0.2,91.3,0,0.5,0.5,1
172,2024-01-08T02:51:00,0.6,南南西,1.8,南南東,-0.3,91.5,0,0.5,0.5,1
173,2024-01-08T02:52:00,0.7,南南西,1.9,南南東,-0.2,91.7,0,0.5,0.5,1
174,2024-01-08T02:53:00,0.8,南南西,1.9,南南東,-0.2,92.1,0,0.5,0.5,1
175,2024-01-08T02:54:00,1,南,1.9,南南東,-0.1,92.2,0,0.5,0.5,1
176,2024-01-08T02:55:00,1.1,南,1.9,南南東,-0.1,92,0,0.5,0.5,1
177,2024-01-08T02:56:00,1.2,南南東,1.9,南南東,-0.2,91.9,0,0.5,0.5,1
178,2024-01-08T02:57:00,1.3,南南東,1.9,南南東,-0.2,91.9,0,0.5,0.5,1
179,2024-01-08T02:58:00,1.4,南南東,1.9,南南東,-0.2,92.1,0,0.5,0.5,1
180,2024-01-08T02:59:00,1.5,南東,1.9,南南東,-0.2,92.1,0,0.5,0.5,1
181,2024-01-08T03:00:00,1.5,南東,2.1,南東,-0.3,92.1,0,0.5,0.5,1
182,2024-01-08T03:01:00,1.6,南東,2.5,東南東,-0.2,92.1,0,0.5,0.5,1
183,2024-01-08T03:02:00,1.6,南東,2.5,東南東,-0.3,92.1,0,0.5,0.5,1
184,2024-01-08T03:03:00,1.6,南東,2.5,東南東,-0.4,92.3,0,0.5,0.5,1
185,2024-01-08T03:04:00,1.6,南東,2.5,東南東,-0.4,92.4,0,0.5,0.5,1
186,2024-01-08T03:05:00,1.6,東南東,2.5,東南東,-0.4,92.8,0,0.5,0.5,1
187,2024-01-08T03:06:00,1.6,東南東,2.5,東南東,-0.4,93.3,0,0.5,0.5,1
188,2024-01-08T03:07:00,1.7,東南東,2.5,東南東,-0.4,93.4,0,0.5,0.5,1
189,2024-01-08T03:08:00,1.6,東南東,2.5,東南東,-0.5,93.5,0,0.5,0.5,1
190,2024-01-08T03:09:00,1.5,東南東,2.5,東南東,-0.5,93.7,0,0.5,0.5,1
191,2024-01-08T03:10:00,1.3,東南東,2.5,東南東,-0.6,93.7,0,0.5,0.5,1
192,2024-01-08T03:11:00,1.2,東南東,2.5,東南東,-0.6,93.8,0,0.5,0.5,1
193,2024-01-08T03:12:00,1,東南東,2.5,東南東,-0.6,93.8,0,0.5,0.5,1
194,2024-01-08T03:13:00,0.9,東南東,2.5,東南東,-0.7,93.7,0,0.5,0.5,1
195,2024-01-08T03:14:00,0.8,東,2.5,東南東,-0.7,93.7,0,0.5,0.5,1
196,2024-01-08T03:15:00,0.6,東北東,2.5,東南東,-0.7,93.6,0,0.5,0.5,1
197,2024-01-08T03:16:00,0.5,北東,2.5,東南東,-0.7,93.6,0,0.5,0.5,1
198,2024-01-08T03:17:00,0.3,北北東,1.7,東南東,-0.7,93.8,0,0.5,0.5,1
199,2024-01-08T03:18:00,0.3,北,1.2,北北西,-0.6,94,0,0.5,0.5,1
200,2024-01-08T03:19:00,0.3,北,1.2,北北西,-0.5,94.4,0,0.5,0.5,1
201,2024-01-08T03:20:00,0.4,北北東,1.2,北北西,-0.4,94.7,0,0.5,0.5,1
202,2024-01-08T03:21:00,0.5,北北東,1.2,北北西,-0.4,94.6,0,0.5,0.5,1
203,2024-01-08T03:22:00,0.5,北北東,1.2,北北西,-0.4,94.3,0,0,0.5,1
204,2024-01-08T03:23:00,0.6,北北東,1.5,東南東,-0.5,93.9,0,0,0.5,1
205,2024-01-08T03:24:00,0.6,北東,1.5,東南東,-0.5,93.6,0,0,0.5,1
206,2024-01-08T03:25:00,0.7,東北東,1.5,東南東,-0.5,93.8,0,0,0.5,1
207,2024-01-08T03:26:00,0.8,東,1.7,東南東,-0.6,93.8,0,0,0.5,1
208,2024-01-08T03:27:00,0.9,東,1.9,東,-0.6,93.7,0,0,0.5,1
209,2024-01-08T03:28:00,1,東,1.9,東,-0.7,93.7,0,0,0.5,1
210,2024-01-08T03:29:00,1,東,1.9,東,-0.7,94,0,0,0.5,1
211,2024-01-08T03:30:00,1,東,1.9,東,-0.7,94.1,0,0,0.5,1
212,2024-01-08T03:31:00,1.1,東南東,2.2,東,-0.7,94.4,0,0,0.5,1
213,2024-01-08T03:32:00,1.1,東南東,2.2,東,-0.7,94.4,0,0,0.5,1
214,2024-01-08T03:33:00,1.1,東南東,2.2,東,-0.8,94.2,0,0,0.5,1
215,2024-01-08T03:34:00,1.2,東南東,2.2,東,-0.9,93.8,0,0,0.5,1
216,2024-01-08T03:35:00,1.2,南東,2.2,東,-1,93.8,0,0,0.5,1
217,2024-01-08T03:36:00,1.1,南東,2.2,東,-1,94.2,0,0,0.5,1
218,2024-01-08T03:37:00,1.2,南東,2.3,東南東,-0.9,94.7,0,0,0.5,1
219,2024-01-08T03:38:00,1.3,南東,2.7,東南東,-0.8,95.2,0,0,0.5,1
220,2024-01-08T03:39:00,1.5,南南東,3.3,東,-0.9,95.1,0,0,0.5,1
221,2024-01-08T03:40:00,1.7,南南東,3.3,東,-0.8,95.2,0,0,0.5,1
222,2024-01-08T03:41:00,1.7,南東,3.3,東,-0.7,95.3,0,0,0.5,1
223,2024-01-08T03:42:00,1.7,南東,3.3,東,-0.7,95.3,0,0,0.5,1
224,2024-01-08T03:43:00,1.7,東南東,3.3,東,-0.7,95.3,0,0,0.5,1
225,2024-01-08T03:44:00,1.6,東,3.3,東,-0.7,95.2,0,0,0.5,1
226,2024-01-08T03:45:00,1.5,東,3.3,東,-0.8,95.1,0,0,0.5,1
227,2024-01-08T03:46:00,1.5,東北東,3.3,東,-0.9,94.8,0,0,0.5,1
228,2024-01-08T03:47:00,1.4,東北東,3.3,東,-0.8,94.8,0,0,0.5,1
229,2024-01-08T03:48:00,1.1,北東,3.3,東,-0.6,95.1,0,0,0.5,1
230,2024-01-08T03:49:00,0.9,北北東,3.2,東,-0.5,95.2,0,0,0.5,1
231,2024-01-08T03:50:00,0.7,北北東,2.8,東,-0.5,95.1,0,0,0.5,1
232,2024-01-08T03:51:00,0.6,北北東,1.8,東北東,-0.5,94.6,0,0,0.5,1
233,2024-01-08T03:52:00,0.6,北北東,1.7,北東,-0.6,94.5,0,0,0.5,1
234,2024-01-08T03:53:00,0.6,北北東,1.3,南南東,-0.7,94.1,0,0,0.5,1
235,2024-01-08T03:54:00,0.6,東北東,1.3,南南東,-0.9,93.7,0,0,0.5,1
236,2024-01-08T03:55:00,0.7,南東,1.3,南南東,-0.9,93.9,0,0,0.5,1
237,2024-01-08T03:56:00,0.7,南南東,1.3,南南東,-1,94,0,0,0.5,1
238,2024-01-08T03:57:00,0.7,南,1.3,南南東,-1,94.3,0,0,0.5,1
239,2024-01-08T03:58:00,0.7,南南東,1.3,南南東,-1,94.4,0,0,0.5,1
240,2024-01-08T03:59:00,0.7,南南東,1.3,南南東,-0.8,94.9,0,0,0.5,1
241,2024-01-08T04:00:00,0.8,南南東,1.3,南南東,-0.9,95,0,0,0.5,1
242,2024-01-08T04:01:00,0.7,南南東,1.3,南南東,-0.9,94.9,0,0,0.5,1
243,2024-01-08T04:02:00,0.6,南,1.3,南南東,-1,94.7,0,0,0.5,1
244,2024-01-08T04:03:00,0.5,南,1.2,南,-1,94.8,0,0,0.5,1
245,2024-01-08T04:04:00,0.4,南,1.2,南,-1.1,94.9,0,0,0.5,1
246,2024-01-08T04:05:00,0.3,南南西,0.9,南南東,-1,95,0,0,0.5,1
247,2024-01-08T04:06:00,0.3,南南西,0.9,南南東,-1,95.2,0,0,0.5,1
248,2024-01-08T04:07:00,0.3,南西,0.9,南南東,-1,95.3,0,0,0.5,1
249,2024-01-08T04:08:00,0.4,西,0.9,南南東,-0.9,95.3,0,0,0.5,1
250,2024-01-08T04:09:00,0.4,西,1,北北西,-0.9,95.4,0,0,0.5,1
251,2024-01-08T04:10:00,0.4,西北西,1,北北西,-0.8,95.5,0,0,0.5,1
252,2024-01-08T04:11:00,0.4,北西,1,北北西,-0.8,95.5,0,0,0.5,1
253,2024-01-08T04:12:00,0.4,北北西,1,北北西,-0.7,95.5,0,0,0.5,1
254,2024-01-08T04:13:00,0.4,北北西,1,北北西,-0.7,95.4,0,0,0.5,1
255,2024-01-08T04:14:00,0.4,北,1.1,北,-0.8,95.3,0,0,0.5,1
256,2024-01-08T04:15:00,0.5,北,1.2,北,-0.8,95.3,0,0,0.5,1
257,2024-01-08T04:16:00,0.6,北,1.5,北北西,-0.8,95.3,0,0,0.5,1
258,2024-01-08T04:17:00,0.6,北,1.5,北北西,-0.8,95.4,0,0,0.5,1
259,2024-01-08T04:18:00,0.5,北,1.5,北北西,-0.7,95.4,0,0,0.5,1
260,2024-01-08T04:19:00,0.5,北北東,1.5,北北西,-0.7,95.5,0,0,0.5,1
261,2024-01-08T04:20:00,0.5,北北東,1.5,北北西,-0.6,95.6,0,0,0.5,1
262,2024-01-08T04:21:00,0.5,北北東,1.5,北北西,-0.6,95.6,0,0,0.5,1
263,2024-01-08T04:22:00,0.5,北北東,1.5,北北西,-0.7,95.5,0,0,0.5,1
264,2024-01-08T04:23:00,0.5,北,1.5,北北西,-0.7,95.5,0,0,0.5,1
265,2024-01-08T04:24:00,0.5,北北西,1.5,北北西,-0.8,95.4,0,0,0.5,1
266,2024-01-08T04:25:00,0.5,北北西,1.5,北北西,-0.8,95.4,0,0,0.5,1
267,2024-01-08T04:26:00,0.4,北北西,1.3,北北西,-0.8,95.5,0,0,0.5,1
268,2024-01-08T04:27:00,0.3,北西,0.7,東北東,-0.8,95.6,0,0,0.5,1
269,2024-01-08T04:28:00,0.3,西北西,0.7,東北東,-0.8,95.6,0,0,0.5,1
270,2024-01-08T04:29:00,0.3,西,0.7,西,-0.8,95.6,0,0,0.5,1
271,2024-01-08T04:30:00,0.3,西,0.9,西,-0.8,95.6,0,0,0.5,1
272,2024-01-08T04:31:00,0.4,西,0.9,西,-0.9,95.6,0,0,0.5,1
273,2024-01-08T04:32:00,0.4,西北西,0.9,西,-0.8,95.6,0,0,0.5,1
274,2024-01-08T04:33:00,0.5,西北西,1.1,北,-0.8,95.7,0,0,0.5,1
275,2024-01-08T04:34:00,0.6,西北西,2.1,北北西,-0.8,95.8,0,0,0.5,1
276,2024-01-08T04:35:00,0.7,西北西,2.2,北北西,-0.8,95.9,0,0,0.5,1
277,2024-01-08T04:36:00,0.7,西北西,2.4,北西,-0.8,96,0,0,0.5,1
278,2024-01-08T04:37:00,0.9,北西,3.4,北,-0.6,96.1,0,0,0.5,1
279,2024-01-08T04:38:00,1,北西,3.4,北,-0.5,96.3,0,0,0.5,1
280,2024-01-08T04:39:00,1.1,北西,4,西北西,-0.5,96.3,0,0,0.5,1
281,2024-01-08T04:40:00,1.4,北西,4.6,西南西,-0.5,96.2,0,0,0.5,1
282,2024-01-08T04:41:00,1.5,北西,4.6,西南西,-0.6,96.1,0,0,0.5,1
283,2024-01-08T04:42:00,1.6,北西,4.6,西南西,-0.6,95.9,0,0,0.5,1
284,2024-01-08T04:43:00,1.6,西北西,4.6,西南西,-0.6,96,0,0,0.5,1
285,2024-01-08T04:44:00,1.6,西北西,4.6,西南西,-0.6,95.9,0,0,0.5,1
286,2024-01-08T04:45:00,1.5,西北西,4.6,西南西,-0.6,96,0,0,0.5,1
287,2024-01-08T04:46:00,1.6,西北西,4.6,西南西,-0.6,96,0,0,0.5,1
288,2024-01-08T04:47:00,1.6,西北西,4.6,西南西,-0.6,96,0,0,0.5,1
289,2024-01-08T04:48:00,1.5,西北西,4.6,西南西,-0.5,96,0,0,0.5,1
290,2024-01-08T04:49:00,1.5,西北西,4.6,西南西,-0.5,96,0,0,0.5,1
291,2024-01-08T04:50:00,1.3,西北西,3.7,西北西,-0.5,96,0,0,0.5,1
292,2024-01-08T04:51:00,1.2,北西,2.7,北西,-0.5,96,0,0,0.5,1
293,2024-01-08T04:52:00,1.2,北西,2.7,北西,-0.4,95.9,0,0,0.5,1
294,2024-01-08T04:53:00,1.2,北西,2.7,北西,-0.3,95.9,0,0,0.5,1
295,2024-01-08T04:54:00,1.2,北西,2.7,北西,-0.4,95.8,0,0,0.5,1
296,2024-01-08T04:55:00,1.3,北西,2.7,北西,-0.3,95.6,0,0,0.5,1
297,2024-01-08T04:56:00,1.3,北西,2.6,北西,-0.4,95.4,0,0,0.5,1
298,2024-01-08T04:57:00,1.4,北西,2.6,北西,-0.4,95.3,0,0,0.5,1
299,2024-01-08T04:58:00,1.4,北西,2.6,北西,-0.4,95.3,0,0,0.5,1
300,2024-01-08T04:59:00,1.3,北西,2.6,北西,-0.4,95.3,0,0,0.5,1
301,2024-01-08T05:00:00,1.2,北西,2.6,北西,-0.4,95.3,0,0,0.5,1
302,2024-01-08T05:01:00,1.1,北西,2.6,北西,-0.4,95.3,0,0,0.5,1
303,2024-01-08T05:02:00,1.1,北西,2.6,北西,-0.4,95.4,0,0,0.5,1
304,2024-01-08T05:03:00,1,北西,2.6,北西,-0.3,95.4,0,0,0.5,1
305,2024-01-08T05:04:00,1,北北西,2.6,北西,-0.2,95.3,0,0,0.5,1
306,2024-01-08T05:05:00,0.8,北北西,2.3,西北西,-0.2,95.1,0,0,0.5,1
307,2024-01-08T05:06:00,0.7,北北西,2.3,西北西,-0.3,94.7,0,0,0.5,1
308,2024-01-08T05:07:00,0.6,北北西,2.3,西北西,-0.4,94.4,0,0,0.5,1
309,2024-01-08T05:08:00,0.5,北,1.2,南南東,-0.5,94.4,0,0,0.5,1
310,2024-01-08T05:09:00,0.6,北北東,1.2,南南東,-0.5,94.6,0,0,0.5,1
311,2024-01-08T05:10:00,0.6,東南東,1.2,南南東,-0.5,94.8,0,0,0.5,1
312,2024-01-08T05:11:00,0.7,南南東,1.8,南南東,-0.6,94.7,0,0,0.5,1
313,2024-01-08T05:12:00,0.8,南南東,1.8,南南東,-0.7,94.8,0,0,0.5,1
314,2024-01-08T05:13:00,0.9,南南東,1.8,南南東,-0.7,94.9,0,0,0.5,1
315,2024-01-08T05:14:00,1,南南東,2,南東,-0.7,95.2,0,0,0.5,1
316,2024-01-08T05:15:00,1.1,南南東,2,南東,-0.7,95.3,0,0,0.5,1
317,2024-01-08T05:16:00,1.1,南南東,2,南東,-0.8,95.4,0,0,0.5,1
318,2024-01-08T05:17:00,1.2,南南東,2,南東,-0.7,95.5,0,0,0.5,1
319,2024-01-08T05:18:00,1.2,南東,2,南東,-0.8,95.6,0,0,0.5,1
320,2024-01-08T05:19:00,1.1,南東,2,南東,-0.8,95.5,0,0,0.5,1
321,2024-01-08T05:20:00,1.2,南東,2,南東,-0.8,95.6,0,0,0.5,1
322,2024-01-08T05:21:00,1.2,東南東,2,南東,-0.8,95.8,0,0,0.5,1
323,2024-01-08T05:22:00,1.2,東南東,2,南東,-0.8,96,0.5,0.5,1,1.5
324,2024-01-08T05:23:00,1.2,東南東,2,南東,-0.9,95.9,0.5,0.5,1,1.5
325,2024-01-08T05:24:00,1.2,東南東,2.1,東南東,-0.8,95.9,0.5,0.5,1,1.5
326,2024-01-08T05:25:00,1.2,東南東,2.1,東南東,-0.9,96,0.5,0.5,1,1.5
327,2024-01-08T05:26:00,1.3,東,2.5,東,-0.8,96,0.5,0.5,1,1.5
328,2024-01-08T05:27:00,1.4,東,2.7,南東,-0.7,96.2,0.5,0.5,1,1.5
329,2024-01-08T05:28:00,1.5,東南東,3.2,東南東,-0.8,96.2,0.5,0.5,1,1.5
330,2024-01-08T05:29:00,1.6,東南東,3.2,東南東,-0.8,96.1,0.5,0.5,1,1.5
331,2024-01-08T05:30:00,1.7,東南東,3.2,東南東,-0.9,96,0.5,0.5,1,1.5
332,2024-01-08T05:31:00,1.8,東南東,3.2,東南東,-0.9,96,0.5,0.5,1,1.5
333,2024-01-08T05:32:00,1.8,東南東,3.2,東南東,-0.9,96.1,0,0.5,1,1.5
334,2024-01-08T05:33:00,2,南東,3.2,東南東,-0.9,96.2,0,0.5,1,1.5
335,2024-01-08T05:34:00,2.1,南東,3.5,南東,-0.9,96.2,0,0.5,1,1.5
336,2024-01-08T05:35:00,2.3,南東,3.5,南東,-0.8,96.3,0,0.5,1,1.5
337,2024-01-08T05:36:00,2.4,南東,3.5,南東,-0.8,96.4,0,0.5,1,1.5
338,2024-01-08T05:37:00,2.4,南東,3.5,南東,-0.8,96.4,0,0.5,1,1.5
339,2024-01-08T05:38:00,2.3,南東,3.5,南東,-0.9,96.3,0,0.5,1,1.5
340,2024-01-08T05:39:00,2.3,南東,3.5,南東,-0.9,96.2,0,0.5,1,1.5
341,2024-01-08T05:40:00,2.3,南南東,3.5,南東,-0.9,96.1,0,0.5,1,1.5
342,2024-01-08T05:41:00,2.2,南東,3.5,南東,-1,96.1,0,0.5,1,1.5
343,2024-01-08T05:42:00,2,南南東,3.5,南東,-1.1,96,0,0.5,1,1.5
344,2024-01-08T05:43:00,1.7,南南東,3.5,南東,-1.2,95.8,0,0.5,1,1.5
345,2024-01-08T05:44:00,1.5,南南東,3.5,南東,-1.1,95.9,0,0.5,1,1.5
346,2024-01-08T05:45:00,1.3,南南東,3,南南東,-1.1,95.9,0,0.5,1,1.5
347,2024-01-08T05:46:00,1.2,南南東,2.8,南南東,-1,96.1,0,0.5,1,1.5
348,2024-01-08T05:47:00,1.2,南南東,2.8,南南東,-0.9,96.2,0,0.5,1,1.5
349,2024-01-08T05:48:00,1.2,南南東,2.8,南南東,-0.9,96.3,0,0.5,1,1.5
350,2024-01-08T05:49:00,1.3,南南東,2.8,南南東,-0.9,96.3,0,0.5,1,1.5
351,2024-01-08T05:50:00,1.2,南南東,2.6,南南東,-1,96.1,0,0.5,1,1.5
352,2024-01-08T05:51:00,1.2,南南東,2.6,南南東,-1.2,95.9,0,0.5,1,1.5
353,2024-01-08T05:52:00,1.1,南南東,2.6,南南東,-1.4,95.6,0,0.5,1,1.5
354,2024-01-08T05:53:00,1.2,南南東,2.6,南南東,-1.2,95.5,0,0.5,1,1.5
355,2024-01-08T05:54:00,1.2,南東,2.6,南南東,-1.2,95.8,0,0.5,1,1.5
356,2024-01-08T05:55:00,1.2,南東,2.6,南南東,-1.2,95.8,0,0.5,1,1.5
357,2024-01-08T05:56:00,1.1,南東,2.6,南南東,-1.2,95.9,0,0.5,1,1.5
358,2024-01-08T05:57:00,1.1,南東,2.6,南南東,-1.2,95.9,0,0.5,1,1.5
359,2024-01-08T05:58:00,1,南東,2.2,南東,-1.2,96,0,0.5,1,1.5
360,2024-01-08T05:59:00,0.9,南東,2.1,南東,-1.3,96,0,0.5,1,1.5
361,2024-01-08T06:00:00,0.9,南東,2.1,南東,-1.3,95.9,0,0.5,1,1.5
362,2024-01-08T06:01:00,0.8,東南東,2.1,南東,-1.3,95.9,0,0.5,1,1.5
363,2024-01-08T06:02:00,0.9,東南東,2.1,南東,-1.3,95.9,0,0.5,1,1.5
364,2024-01-08T06:03:00,0.9,南東,2.1,南東,-1.3,96,0,0.5,1,1.5
365,2024-01-08T06:04:00,0.9,南東,2.1,南東,-1.3,96.1,0,0.5,1,1.5
366,2024-01-08T06:05:00,1,南東,2.1,南東,-1.3,96.1,0,0.5,1,1.5
367,2024-01-08T06:06:00,1,南東,2.1,南東,-1.3,96.1,0,0.5,1,1.5
368,2024-01-08T06:07:00,1,南東,2.1,南東,-1.3,96.1,0,0.5,1,1.5
369,2024-01-08T06:08:00,1,南南東,2.1,南,-1.2,96.1,0,0.5,1,1.5
370,2024-01-08T06:09:00,0.9,南南東,2.1,南,-1.3,96.2,0,0.5,1,1.5
371,2024-01-08T06:10:00,0.9,南南東,2.1,南,-1.3,96,0,0.5,1,1.5
372,2024-01-08T06:11:00,0.9,南南東,2.1,南,-1.3,96,0,0.5,1,1.5
373,2024-01-08T06:12:00,1,南南東,2.1,南,-1.3,96,0,0.5,1,1.5
374,2024-01-08T06:13:00,0.9,南南東,2.1,南,-1.2,96.1,0,0.5,1,1.5
375,2024-01-08T06:14:00,0.9,南南東,2.1,南,-1.4,96.1,0,0.5,1,1.5
376,2024-01-08T06:15:00,0.8,南南東,2.1,南,-1.7,95.6,0,0.5,1,1.5
377,2024-01-08T06:16:00,0.7,南南東,1.8,南,-1.8,95.2,0,0.5,1,1.5
378,2024-01-08T06:17:00,0.6,南南東,1.6,南,-1.6,95.4,0,0.5,1,1.5
379,2024-01-08T06:18:00,0.5,南南東,1.2,東南東,-1.4,95.8,0,0.5,1,1.5
380,2024-01-08T06:19:00,0.4,南東,1.2,東南東,-1.3,96.2,0,0.5,1,1.5
381,2024-01-08T06:20:00,0.4,南東,1.2,東南東,-1.1,96.4,0,0.5,1,1.5
382,2024-01-08T06:21:00,0.4,西南西,1.2,東南東,-1.1,96.4,0,0.5,1,1.5
383,2024-01-08T06:22:00,0.3,西北西,1.1,東,-1.2,96.3,0,0,1,1.5
384,2024-01-08T06:23:00,0.3,北北西,1.1,東北東,-1.3,96.2,0,0,1,1.5
385,2024-01-08T06:24:00,0.3,北北西,1.1,東北東,-1.6,95.8,0,0,1,1.5
386,2024-01-08T06:25:00,0.4,北,1.1,東北東,-1.7,95.5,0,0,1,1.5
387,2024-01-08T06:26:00,0.4,北北東,1.6,東南東,-1.6,95.5,0,0,1,1.5
388,2024-01-08T06:27:00,0.5,北北東,1.8,東南東,-1.4,95.9,0,0,1,1.5
389,2024-01-08T06:28:00,0.6,北東,1.8,東南東,-1.4,96.2,0,0,1,1.5
390,2024-01-08T06:29:00,0.7,北東,1.8,東南東,-1.4,96.2,0,0,1,1.5
391,2024-01-08T06:30:00,0.7,北東,1.8,東南東,-1.4,96.1,0,0,1,1.5
392,2024-01-08T06:31:00,0.7,北東,1.8,東南東,-1.5,96.1,0,0,1,1.5
393,2024-01-08T06:32:00,0.7,北東,1.8,東南東,-1.4,96.1,0,0,1,1.5
394,2024-01-08T06:33:00,0.7,北東,1.8,東南東,-1.3,96.2,0,0,1,1.5
395,2024-01-08T06:34:00,0.7,東北東,1.8,東南東,-1.3,96.3,0,0,1,1.5
396,2024-01-08T06:35:00,0.8,東北東,1.8,東南東,-1.3,96.2,0,0,1,1.5
397,2024-01-08T06:36:00,0.7,東北東,1.8,東南東,-1.3,96.2,0,0,1,1.5
398,2024-01-08T06:37:00,0.7,東北東,1.6,東南東,-1.4,96.2,0,0,1,1.5
399,2024-01-08T06:38:00,0.7,東,1.6,東南東,-1.4,96.1,0,0,1,1.5
400,2024-01-08T06:39:00,0.7,東,1.6,東南東,-1.4,96.1,0,0,1,1.5
401,2024-01-08T06:40:00,0.8,東南東,1.6,東南東,-1.4,96.1,0,0,1,1.5
402,2024-01-08T06:41:00,0.8,東南東,1.6,東南東,-1.3,96.2,0,0,1,1.5
403,2024-01-08T06:42:00,0.8,東南東,1.6,東南東,-1.4,96.2,0,0,1,1.5
404,2024-01-08T06:43:00,0.8,東南東,1.6,東南東,-1.3,96.2,0,0,1,1.5
405,2024-01-08T06:44:00,0.8,東南東,1.6,東南東,-1.2,96.3,0,0,1,1.5
406,2024-01-08T06:45:00,0.7,東南東,1.6,南南東,-1.3,96.3,0,0,1,1.5
407,2024-01-08T06:46:00,0.7,東南東,1.6,南南東,-1.4,96.2,0,0,1,1.5
408,2024-01-08T06:47:00,0.7,東南東,1.6,南南東,-1.3,96.1,0,0,1,1.5
409,2024-01-08T06:48:00,0.7,東,1.6,南南東,-1.3,96.2,0,0,1,1.5
410,2024-01-08T06:49:00,0.6,東,1.6,南南東,-1.3,96.2,0,0,1,1.5
411,2024-01-08T06:50:00,0.5,東,1.3,東,-1.2,96.2,0,0,1,1.5